METEREN Weather Reports


time (UTC)temp
C
wind
direction
speed
KPH
gust
KPH
rain 1hr
cm
rain 24hr
cm
rain mn
cm
humidity
%
barometer
mb
20260505101605 10 360 8.0 19.3 0.00 0.71 0.00 91 1010.2
20260505100100 10 360 9.7 19.3 0.00 0.71 0.00 91 1010.4
20260505094602 10 360 8.0 19.3 0.00 0.71 0.00 92 1010.4
20260505093057 10 360 9.7 19.3 0.00 0.71 0.00 92 1010.5
20260505091557 10 360 9.7 17.7 0.00 0.71 0.00 92 1010.5
20260505090058 10 360 11.3 17.7 0.00 0.71 0.00 93 1010.4
20260505084600 9 360 11.3 19.3 0.00 0.71 0.00 93 1010.5
20260505083104 9 360 8.0 24.1 0.00 0.71 0.00 94 1010.4
20260505081551 9 360 9.7 24.1 0.00 0.71 0.00 95 1010.5
20260505080049 9 360 14.5 24.1 0.00 0.71 0.00 95 1010.5
20260505074545 -17 0.0 0.0 0.00 0.71 0.00 1010.5
20260505073042 -17 0.0 0.0 0.00 0.71 0.00 1010.4
20260505071537 9 360 12.9 22.5 0.00 0.71 0.00 95 1010.4
20260505070046 9 360 3.2 16.1 0.00 0.71 0.00 95 1010.4
20260505064537 9 360 9.7 20.9 0.00 0.71 0.00 96 1010.6
20260505063034 9 360 11.3 19.3 0.00 0.71 0.00 96 1010.5
20260505061552 9 360 11.3 19.3 0.00 0.71 0.00 96 1010.7
20260505060028 9 360 9.7 22.5 0.00 0.71 0.00 96 1010.8
20260505054540 9 360 9.7 19.3 0.00 0.71 0.00 96 1010.9
20260505053026 9 360 4.8 17.7 0.00 0.71 0.00 96 1010.8
20260505051523 9 360 6.4 17.7 0.00 0.71 0.00 96 1010.6
20260505041518 9 360 9.7 17.7 0.00 0.71 0.00 96 1010.4
20260505040034 9 360 4.8 14.5 0.00 0.71 0.00 96 1010.4
20260505034523 9 360 6.4 17.7 0.00 0.71 0.00 95 1010.5
20260505033016 9 360 8.0 16.1 0.00 0.71 0.00 95 1010.4
20260505031513 9 360 8.0 17.7 0.00 0.71 0.00 95 1010.5
20260505030016 10 360 14.5 29.0 0.00 0.71 0.00 95 1010.5
20260505024510 10 360 8.0 17.7 0.00 0.71 0.00 95 1010.5
20260505023008 10 360 8.0 19.3 0.00 0.71 0.00 95 1010.4
20260505021506 10 360 9.7 19.3 0.00 0.71 0.00 95 1010.5
20260505020008 10 360 11.3 22.5 0.00 0.71 0.00 95 1010.6
20260505014503 10 360 11.3 20.9 0.00 0.71 0.00 95 1010.6
20260505013104 10 360 14.5 22.5 0.00 0.71 0.00 95 1010.6
20260505011613 11 360 9.7 19.3 0.00 0.71 0.00 95 1010.8
20260505010106 11 360 9.7 25.7 0.00 0.71 0.00 94 1010.8
20260505004554 11 360 11.3 22.5 0.00 0.71 0.00 94 1010.8
20260505003053 11 360 8.0 19.3 0.00 0.71 0.00 93 1010.9
20260505001553 11 360 6.4 24.1 0.00 0.71 0.00 93 1010.9
20260505000056 11 360 12.9 24.1 0.00 0.71 0.00 92 1011.0
20260504234548 12 360 11.3 22.5 0.00 0.71 0.00 92 1011.2
20260504233044 12 360 12.9 22.5 0.00 0.71 0.00 92 1011.2
20260504231541 12 360 8.0 19.3 0.00 0.71 0.00 92 1011.2
20260504230039 12 360 9.7 22.5 0.00 0.71 0.00 92 1011.2
20260504224538 12 360 6.4 19.3 0.00 0.71 0.71 92 1011.1
20260504223037 13 360 8.0 16.1 0.00 0.71 0.71 92 1011.3
20260504221540 13 360 6.4 17.7 0.00 0.71 0.71 92 1011.3
20260504220046 13 360 8.0 14.5 0.00 0.71 0.71 92 1011.5
20260504214537 13 360 3.2 17.7 0.00 0.71 0.71 92 1011.5
20260504213050 13 360 8.0 17.7 0.00 0.71 0.71 92 1011.6
20260504211540 13 360 6.4 16.1 0.00 0.71 0.71 92 1011.7
20260504210033 -17 0.0 0.0 0.00 0.71 0.71 1011.6
20260504204537 -17 0.0 0.0 0.00 0.71 0.71 1011.7
20260504203025 -17 0.0 0.0 0.00 0.71 0.71 1011.8
20260504201523 13 360 12.9 22.5 0.00 0.71 0.71 91 1011.8
20260504200023 14 360 11.3 19.3 0.00 0.71 0.71 91 1011.7
20260504194523 14 360 8.0 16.1 0.00 0.71 0.71 91 1011.5
20260504193023 14 360 6.4 17.7 0.00 0.71 0.71 91 1011.4
20260504191525 15 360 4.8 17.7 0.00 0.71 0.71 90 1011.3
20260504190027 15 360 9.7 16.1 0.00 0.71 0.71 90 1011.2
20260504184521 15 360 8.0 19.3 0.00 0.71 0.71 89 1011.3
20260504183021 15 360 9.7 16.1 0.00 0.71 0.71 88 1011.2
20260504181521 15 360 8.0 19.3 0.00 0.71 0.71 88 1011.2
20260504180020 16 360 8.0 20.9 0.00 1.02 0.71 88 1011.1
20260504174521 16 360 8.0 16.1 0.00 1.02 0.71 87 1011.2
20260504173017 -17 0.0 0.0 0.00 1.02 0.71 1011.1
20260504171513 17 360 9.7 17.7 0.00 1.02 0.71 84 1010.9
20260504140103 17 40 0.0 0.0 0.00 1.22 0.71 88 1011.6
20260504120103 16 360 1.6 9.7 0.71 1.42 0.71 91 1012.2